Location: Caltech
(34.1382°N, 118.1253°W)
Time: 13:26:02
(UTC-07:00)

Cosmos 1606 - Visible Passes

Search period start: 20 April 2018 00:00
Search period end: 30 April 2018 00:00
Orbit: 507 x 529 km, 82.5° (Epoch: 20 April)

Date Brightness Start Highest point End Pass type
(mag) Time Alt. Az. Time Alt. Az. Time Alt. Az.
25 Apr 5.8 22:33:52 10° N 22:33:52 10° N 22:33:54 10° N visible
26 Apr 5.5 22:19:11 12° NNE 22:19:11 12° NNE 22:19:32 10° NNE visible
27 Apr 5.3 22:04:29 14° NNE 22:04:29 14° NNE 22:05:09 10° NNE visible
28 Apr 5.0 21:49:44 17° NNE 21:49:44 17° NNE 21:50:44 10° NNE visible
29 Apr 4.7 21:34:56 19° NE 21:34:56 19° NE 21:36:17 10° NNE visible
29 Apr 6.0 23:09:57 11° NW 23:09:57 11° NW 23:10:17 10° NW visible
